User: anonymous
Location: Caltech
(34.1382°N, 118.1253°W)
Time: 10:27:47
(UTC-07:00)
Language:

Saudisat 1A - Orbit

View from above orbital plane
View from above orbital plane
View from above satellite
View from above satellite

Ground track
Ground track

The orbit data is extracted from the following two-line orbital elements,

1 26546U 00057B   14259.15323586  .00002121  00000-0  24540-3 0  3616
2 26546 064.5559 237.5262 0005180 278.5636 081.4885 14.88191465756938
Epoch (UTC): 16 September 2014 03:40:39
Eccentricity: 0.0005180
inclination: 64.5559°
perigee height: 600 km
apogee height: 607 km
right ascension of ascending node: 237.5262°
argument of perigee: 278.5636°
revolutions per day: 14.88191465
mean anomaly at epoch: 81.4885°
orbit number at epoch: 75693

The dashed part of the orbit path shows where the satellite is in the earth's shadow,  

DLR